Flag for United Kingdom Weather past 2 weeks in Manchester, England, United Kingdom

Now
66 °F

Scattered showers. Scattered clouds.


Feels Like: 66 °F
Forecast: 53 / 60 °F
Wind: 14 mph from Southwest

Location: Manchester Airport

Current Time: Jul 7, 2015 at 2:52:35 PM

Latest Report: Jul 7, 2015 at 2:20 PM


Visibility: N/A

Pressure: 29.68 "Hg

Humidity: 64%

Dew point: 54 °F

Location of ManchesterLocation

Historic Weather in Manchester — Graph

°F

Manchester temperature yesterday

Maximum temperature yesterday: 63 °F (at 9:50 AM)
Minimum temperature yesterday: 50 °F (at 3:50 AM)
Average temperature yesterday: 57 °F

Past Weeks' High & Low Weather Summary

 TemperatureHumidityPressure
High86 °F (Jul 1, 2:50 PM)100% (Jun 25, 3:50 AM)30.30 "Hg (Jun 25, 3:50 AM)
Low48 °F (Jun 23, 4:50 AM)39% (Jun 30, 8:20 PM)29.65 "Hg (Jul 7, 11:50 AM)
Average62 °F76%30.03 "Hg
* Reported Jun 22 1:20 PM — Jul 7 1:50 PM, Manchester, Weather by CustomWeather, © 2015

Note: Actual official high and low records may vary slightly from our data, if they occured in-between our weather recording intervals... More about our weather records

Advertising

Manchester weather history for previous 24 hours

 ConditionsComfort  
Time TempWeatherWind HumidityBarometerVisibility
1:50 PM
Tue, Jul 7
66 °FScattered clouds.18 mph60%29.65 "HgN/A
1:20 PM64 °FScattered clouds.15 mph73%29.68 "HgN/A
12:50 PM63 °FScattered clouds.15 mph83%29.68 "HgN/A
12:20 PM59 °FBroken clouds.12 mph100%29.68 "HgN/A
11:50 AM63 °FScattered showers. Scattered clouds.14 mph88%29.65 "HgN/A
11:20 AM59 °FSprinkles. Scattered clouds.12 mph94%29.68 "HgN/A
10:50 AM63 °FScattered showers. Partly sunny.10 mph77%29.68 "HgN/A
10:20 AM63 °FScattered clouds.13 mph83%29.68 "HgN/A
9:50 AM64 °FPassing clouds.12 mph78%29.68 "HgN/A
9:20 AM63 °FScattered clouds.12 mph83%29.68 "HgN/A
8:50 AM61 °FPartly sunny.8 mph94%29.71 "HgN/A
8:20 AM59 °FPartly sunny.7 mph100%29.71 "HgN/A
7:50 AM59 °FDrizzle. Partly sunny.8 mph100%29.71 "Hg3 mi
7:20 AM59 °FDrizzle. Mostly cloudy.10 mph94%29.71 "Hg2 mi
6:50 AM61 °FDrizzle. Partly sunny.10 mph88%29.71 "HgN/A
6:20 AM59 °FScattered showers. Scattered clouds.13 mph94%29.71 "HgN/A
5:50 AM59 °FPassing clouds.10 mph94%29.71 "HgN/A
5:20 AM59 °FPassing clouds.9 mph94%29.74 "HgN/A
4:50 AM59 °FPassing clouds.10 mph88%29.74 "HgN/A
4:20 AM59 °FPassing clouds.10 mph88%29.74 "HgN/A
3:50 AM59 °FPassing clouds.13 mph88%29.77 "HgN/A
3:20 AM59 °FPartly cloudy.13 mph82%29.77 "HgN/A
2:50 AM59 °FPassing clouds.15 mph82%29.77 "HgN/A
2:20 AM59 °FPassing clouds.14 mph82%29.80 "HgN/A
1:50 AM59 °FPartly cloudy.14 mph82%29.80 "HgN/A
1:20 AM61 °FPartly cloudy.14 mph77%29.80 "HgN/A
12:50 AM61 °FPassing clouds.15 mph77%29.80 "HgN/A
12:20 AM61 °FPassing clouds.13 mph83%29.83 "HgN/A
11:50 PM
Mon, Jul 6
61 °FPassing clouds.17 mph83%29.83 "HgN/A
11:20 PM61 °FPassing clouds.14 mph83%29.83 "HgN/A
10:50 PM61 °FPassing clouds.12 mph83%29.83 "HgN/A
10:20 PM61 °FScattered clouds.10 mph83%29.86 "HgN/A
9:50 PM61 °FLight rain. Passing clouds.15 mph88%29.86 "HgN/A
9:20 PM63 °FPassing clouds.14 mph83%29.86 "HgN/A
8:50 PM61 °FPassing clouds.12 mph88%29.86 "HgN/A
8:20 PM61 °FScattered clouds.10 mph88%29.89 "HgN/A
7:50 PM61 °FPartly sunny.9 mph88%29.89 "HgN/A
7:20 PM61 °FPartly sunny.13 mph88%29.92 "HgN/A
6:50 PM59 °FScattered showers. Partly sunny.10 mph94%29.92 "HgN/A
6:20 PM59 °FPartly sunny.8 mph94%29.92 "HgN/A
5:50 PM59 °FPartly sunny.9 mph94%29.92 "HgN/A
5:20 PM59 °FLight rain. Broken clouds.8 mph94%29.95 "Hg6 mi
4:50 PM59 °FBroken clouds.12 mph94%29.95 "HgN/A
4:20 PM57 °FPartly sunny.7 mph100%29.98 "HgN/A
3:50 PM57 °FBroken clouds.6 mph94%29.98 "HgN/A
3:20 PM57 °FDrizzle. Broken clouds.5 mph94%30.01 "Hg2 mi
2:50 PM57 °FRain. Broken clouds.8 mph94%30.01 "Hg2 mi
2:20 PM59 °FLight rain. Broken clouds.9 mph88%30.01 "Hg3 mi
Weather by CustomWeather, © 2015

See weather overviewHow to use our weather pages